Regional Weather Roundup
Issued by NWS

Home | Current Version | Previous Version | Graphics & Text | Print | Product List | Glossary On
Versions: 1 2 3 4 5 6 7 8 9 10 11 12 13 14 15 16 17 18 19 20 21 22 23 24 25 26 27 28 29 30 31 32 33 34 35 36 37 38 39 40 41 42 43 44 45 46 47 48 49 50
000
ASUS43 KDMX 260804
RWRIA

WEATHER ROUNDUP FOR IOWA
NATIONAL WEATHER SERVICE DES MOINES IA
  ISSUED BY NWS QUAD CITIES IA IL
300 AM CDT THU MAR 26 2015

NOTE: "FAIR" INDICATES FEW OR NO CLOUDS BELOW 12,000 FEET WITH NO
SIGNIFICANT WEATHER AND/OR OBSTRUCTIONS TO VISIBILITY.

* - THESE STATIONS ARE NOT NWS STATIONS...THUS NOT UNDER NWS
QUALITY CONTROL.  THEY ALSO DO NOT REPORT WEATHER SUCH
AS PRECIPITATION OR FOG.

IAZ001>003-012>014-020>022-031>034-043>046-260900-
   NORTHWEST IOWA

CITY           SKY/WX    TMP DP  RH WIND       PRES   REMARKS
CARROLL *      CLEAR     28  25  86 NW10      30.15F WCI  19
DENNISON *     CLEAR     28  25  86 N3        30.16F
LE MARS *      CLEAR     25  23  93 CALM      30.21F
ORANGE CITY *  CLEAR     27  21  80 NW5       30.19S WCI  21
SHELDON *      MOCLDY    25  23  93 W7        30.17S WCI  17
SIOUX CITY     CLEAR     28  21  75 W5        30.22F WCI  23
SPENCER        CLEAR     26  21  81 W7        30.17S WCI  18
STORM LAKE *   CLEAR     28  23  80 NW13      30.17S WCI  18
$$

IAZ055>058-069>071-079>083-090>094-260900-
   SOUTHWEST IOWA

CITY           SKY/WX    TMP DP  RH WIND       PRES   REMARKS
ATLANTIC *     CLEAR     28  25  86 N7        30.17F WCI  21
AUDUBON *      CLEAR     28  25  86 NW6       30.16F WCI  22
CLARINDA *     CLEAR     34  28  80 N10       30.19R WCI  26
COUNCIL BLFS * CLEAR     32  27  80 NW7       30.18F WCI  26
CRESTON *      CLEAR     32  28  86 N10       30.14F WCI  24
HARLAN *       CLEAR     27  27 100 N7        30.21S WCI  19
LAMONI         CLEAR     33  28  81 N9        30.12R WCI  25
RED OAK *      CLEAR     30  27  86 N7        30.18S WCI  23
SHENANDOAH *   CLEAR     32  28  86 N9        30.19S WCI  24
$$

IAZ047>049-059>061-072>074-084-260900-
   CENTRAL IOWA

CITY           SKY/WX    TMP DP  RH WIND       PRES   REMARKS
AMES           CLEAR     32  23  69 NW13      30.12F WCI  22
ANKENY *       CLEAR     34  25  69 NW13G21   30.13F WCI  25
BOONE *        CLEAR     32  25  74 NW14      30.11F WCI  22
CHARITON *     PTCLDY    32  27  80 N8        30.12S WCI  25
DES MOINES     CLEAR     34  25  69 N10       30.14F WCI  26
GRINNELL *     SUNNY     29  25  87 NW7       30.10S WCI  22
KNOXVILLE *    CLEAR     32  27  80 NW9       30.11R WCI  24
MARSHALLTOWN   CLEAR     29  25  85 NW10      30.09F WCI  20
PELLA *        CLEAR     31  29  91 NW8       30.12S WCI  23
PERRY *        FAIR      29  26  89 NW8       30.15F WCI  21
$$

IAZ004>006-015-016-023>025-035-036-260900-
   NORTH CENTRAL IOWA

CITY           SKY/WX    TMP DP  RH WIND       PRES   REMARKS
ALGONA *       CLEAR     30  27  86 NW12      30.13S WCI  21
CLARION *      CLEAR     30  28  93 NW12      30.12S WCI  21
ESTHERVILLE    CLEAR     27  22  81 W8        30.14S WCI  19
FORT DODGE *   CLEAR     30  21  69 NW6       30.14F WCI  24
MASON CITY     CLEAR     31  24  75 NW15      30.10F WCI  20
FOREST CITY *  FAIR      30  25  80 NW8       30.10F WCI  23
WEBSTER CITY * CLEAR     28  28 100 NW10      30.11S WCI  19
IOWA FALLS *   FAIR      31  26  82 NW9       30.11F WCI  23
$$

IAZ007>011-017>019-026>030-037>042-050>054-066-260900-
   NORTHEAST IOWA

CITY           SKY/WX    TMP DP  RH WIND       PRES   REMARKS
CEDAR RAPIDS   PTCLDY    29  26  89 NW9       30.06F WCI  20
CHARLES CITY * CLEAR     30  27  86 NW10      30.07F WCI  21
CLINTON *      MOCLDY    32  25  74 NW8       30.08S WCI  25
DECORAH *      CLEAR     28  25  86 NW5       30.04F WCI  23
DUBUQUE        PTCLDY    31  23  72 NW18G25   30.02F WCI  19
MONTICELLO *   PTCLDY    32  27  80 NW9       30.05F WCI  24
OELWEIN *      CLEAR     28  27  93 NW9       30.06F WCI  20
WATERLOO       CLEAR     29  25  85 NW8       30.08F WCI  21
$$

IAZ064-065-067-068-078-260900-
   EAST CENTRAL IOWA

CITY           SKY/WX    TMP DP  RH WIND       PRES   REMARKS
DAVENPORT      CLOUDY    33  26  75 NW8       30.06F WCI  26
IOWA CITY      MOCLDY    32  26  78 NW7       30.09F WCI  26
MUSCATINE *    MOCLDY    34  27  75 NW5       30.09F WCI  30
QUAD CITIES    CLOUDY    35  26  69 N8        30.06F WCI  29
$$

IAZ062-063-075>077-085>089-095>099-260900-
   SOUTHEAST IOWA

CITY           SKY/WX    TMP DP  RH WIND       PRES   REMARKS
BURLINGTON     CLOUDY    36  27  69 N12G20    30.07F WCI  28
FAIRFIELD *    MOCLDY    34  27  75 NW9       30.09F WCI  26
KEOKUK *       CLOUDY    37  32  81 N10       30.08S WCI  30
OTTUMWA        PTCLDY    31  26  82 NW10      30.09F WCI  22
WASHINGTON *   MOCLDY    34  30  86 NW10      30.09S WCI  26
$$

ABBREVIATIONS USED IN REMARKS
   TC - TEMPERATURES IN CELSIUS
  WCI - WIND CHILL INDEX
   HX - HEAT INDEX
  VSB - VISIBILITY
$$



USA.gov is the U.S. government's official web portal to all federal, state and local government web resources and services.